This is the latest recevied weather packets stored in our database for station/object KB3KAV. If no packets are shown the sender has not sent any weather packets the latest 10 day(s).
| Time | Temp. | Humidity | Pressure | Rain* | Wind** | Luminosity | Snow |
|---|---|---|---|---|---|---|---|
| 1777981227 | 12.22° C | 85% | 1039 hPa | 0 mm | - | 61 W/m² | - |
| 1777980626 | 10.56° C | 90% | 1038.8 hPa | 0 mm | - | 65 W/m² | - |
| 1777980020 | 10° C | 94% | 1038.9 hPa | 0 mm | - | 42 W/m² | - |
| 1777979416 | 9.44° C | 94% | 1038.6 hPa | 0 mm | - | 37 W/m² | - |
| 1777978816 | 8.89° C | 95% | 1038.8 hPa | 0 mm | - | 33 W/m² | - |
| 1777978214 | 7.78° C | 95% | 1038.7 hPa | 0 mm | - | 28 W/m² | - |
| 1777977615 | 7.78° C | 95% | 1038.7 hPa | 0 mm | - | 24 W/m² | - |
| 1777977015 | 7.78° C | 95% | 1038.3 hPa | 0 mm | - | 23 W/m² | - |
| 1777976409 | 7.78° C | 95% | 1038.3 hPa | 0 mm | - | 12 W/m² | - |
| 1777975809 | 7.78° C | 95% | 1038 hPa | 0 mm | - | 5 W/m² | - |
| 1777975210 | 7.78° C | 94% | 1038.1 hPa | 0 mm | - | 1 W/m² | - |
| 1777974608 | 7.78° C | 94% | 1038.1 hPa | 0 mm | - | 0 W/m² | - |
| 1777974007 | 7.78° C | 94% | 1038 hPa | 0 mm | - | 0 W/m² | - |
| 1777973406 | 7.78° C | 94% | 1038 hPa | 0 mm | - | 0 W/m² | - |
| 1777972801 | 8.33° C | 93% | 1037.8 hPa | 0 mm | - | 0 W/m² | - |
| 1777972197 | 8.33° C | 93% | 1037.9 hPa | 0 mm | - | 0 W/m² | - |
| 1777971591 | 8.89° C | 93% | 1038.1 hPa | 0 mm | - | 0 W/m² | - |
| 1777970987 | 8.89° C | 92% | 1037.9 hPa | 0 mm | - | 0 W/m² | - |
| 1777970383 | 9.44° C | 92% | 1037.9 hPa | 0 mm | - | 0 W/m² | - |
| 1777969782 | 9.44° C | 91% | 1037.8 hPa | 0 mm | - | 0 W/m² | - |
| 1777969181 | 9.44° C | 91% | 1038.1 hPa | 0 mm | - | 0 W/m² | - |
| 1777968580 | 9.44° C | 90% | 1037.8 hPa | 0 mm | - | 0 W/m² | - |
| 1777967978 | 9.44° C | 90% | 1038.1 hPa | 0 mm | - | 0 W/m² | - |
| 1777967372 | 9.44° C | 89% | 1037.7 hPa | 0 mm | - | 0 W/m² | - |
| 1777966772 | 9.44° C | 88% | 1037.6 hPa | 0 mm | - | 0 W/m² | - |
* Rain latest hour (hover to see other rain measurements)
** Current wind speed in m/s (hover to see current wind gust speed)